This demonstration page uses our WeatherBlox Daily Observations layout. Learn more.

Hourly Observations for May 13, 2019

Temp ( °F °C ) Dew Point ( °F °C ) Humidity (%) Winds ( mph kmh ) Pressure ( in mb ) Visibility ( mi km ) Precip ( " mm )
12:54 am 00:54 Clear 50 10 45 7.2 83 83 ESE 7 11 29.91 1013 10 16.09344 0 0
1:54 am 01:54 Clear 49 9.4 45 7.2 86 86 SE 8 13 29.91 1013 10 16.09344 0 0
2:54 am 02:54 Clear 46 7.8 43 6.1 89 89 SSE 7 11 29.91 1013 10 16.09344 0 0
3:54 am 03:54 Clear 47 8.3 43 6.1 86 86 S 3 6 29.91 1013 10 16.09344 0 0
4:54 am 04:54 Clear 44 6.7 42 5.6 93 93 Calm 29.94 1014 10 16.09344 0 0
5:54 am 05:54 Partly Cloudy 40 4.4 39 3.9 97 97 Calm 29.94 1014 10 16.09344 0 0
6:54 am 06:54 Cloudy 44 6.7 42 5.6 93 93 Calm 29.97 1015 10 16.09344 0 0
7:54 am 07:54 Mostly Sunny 48 8.9 44 6.7 86 86 SSE 3 6 29.97 1015 10 16.09344 0 0
8:54 am 08:54 Sunny 54 12.2 47 8.3 77 77 S 12 19 29.97 1015 10 16.09344 0 0
9:54 am 09:54 Sunny 58 14.4 49 9.4 72 72 S 10 17 29.94 1014 10 16.09344 0 0
10:54 am 10:54 Sunny 62 16.7 50 10 65 65 SSE 10 17 29.94 1014 10 16.09344 0 0
11:54 am 11:54 Sunny 65 18.3 50 10 59 59 S 12 19 29.94 1014 10 16.09344 0 0
12:54 pm 12:54 Sunny 67 19.4 50 10 55 55 SSW 9 15 29.91 1013 10 16.09344 0 0
1:54 pm 13:54 Sunny 70 21.1 50 10 49 49 SSW 13 20 29.88 1012 10 16.09344 0 0
2:54 pm 14:54 Sunny 72 22.2 50 10 46 46 S 13 20 29.85 1011 10 16.09344 0 0
3:54 pm 15:54 Sunny 73 22.8 49 9.4 43 43 S 10 17 29.85 1011 10 16.09344 0 0
4:54 pm 16:54 Sunny 73 22.8 49 9.4 43 43 S 13 20 29.83 1010 10 16.09344 0 0
5:54 pm 17:54 Sunny 73 22.8 49 9.4 43 43 S 8 13 29.85 1011 10 16.09344 0 0
6:54 pm 18:54 Sunny 72 22.2 50 10 46 46 S 12 19 29.83 1010 10 16.09344 0 0
7:54 pm 19:54 Sunny 69 20.6 50 10 51 51 S 10 17 29.83 1010 10 16.09344 0 0
8:54 pm 20:54 Clear 62 16.7 49 9.4 62 62 SSE 8 13 29.83 1010 10 16.09344 0 0
9:54 pm 21:54 Clear 64 17.8 50 10 60 60 SSE 10 17 29.85 1011 10 16.09344 0 0
10:54 pm 22:54 Clear 63 17.2 50 10 63 63 S 12 19 29.85 1011 10 16.09344 0 0
11:54 pm 23:54 Clear 61 16.1 51 10.6 70 70 S 13 20 29.83 1010 10 16.09344 0 0

Powered by AerisWeather